Regional Weather Roundup
Issued by NWS

Home | Current Version | Previous Version | Graphics & Text | Print | Product List | Glossary On
Versions: 1 2 3 4 5 6 7 8 9 10 11 12 13 14 15 16 17 18 19 20 21 22 23 24 25 26 27 28 29 30 31 32 33 34 35 36 37 38 39 40 41 42 43 44 45 46 47 48 49
000
ASUS45 KBOU 301707
RWRCO

WEATHER ROUNDUP FOR COLORADO
NATIONAL WEATHER SERVICE DENVER/BOULDER CO
1000 AM MST FRI JAN 30 2015

NOTE: "FAIR" INDICATES FEW OR NO CLOUDS BELOW 12000 FEET WITH NO
SIGNIFICANT WEATHER AND/OR OBSTRUCTIONS TO VISIBILITY.

COZ001>005-013-030-031-301800-
...NORTHWEST COLORADO...

CITY           SKY/WX    TMP DP  RH WIND       PRES   REMARKS
CRAIG          CLOUDY    36  30  79 E3        30.18F
HAYDEN         CLOUDY    34  27  75 E8        30.18F WCI  27
MEEKER         CLOUDY    32  31  96 CALM      30.17R
MOUNT WERNER   NOT AVBL
STEAMBOAT SPGS CLOUDY    32  27  81 SE5       30.19F WCI  27
WALDEN         PTSUNNY   30  23  74 CALM      30.21R
$$

COZ006>008-011-301800-
...WEST CENTRAL VALLEYS...

CITY           SKY/WX    TMP DP  RH WIND       PRES   REMARKS
GRAND JUNCTION CLOUDY    44  34  67 E6        30.13F
MONTROSE       CLOUDY    40  32  73 N5        30.15F
EAGLE          CLOUDY    34  28  80 CALM      30.22F
RIFLE          CLOUDY    37  29  72 W3        30.16F
DELTA          CLOUDY    42  32  68 CALM      30.14F
NUCLA          DRIZZLE   37  37 100 CALM      30.19S
$$

COZ017>023-064>068-301800-
...SOUTHWEST COLORADO...

CITY           SKY/WX    TMP DP  RH WIND       PRES   REMARKS
DURANGO        LGT SNOW  32  31  96 E5        30.21F VSB 3/4 WCI  27
CORTEZ         LGT RAIN  38  34  85 SW5       30.16F
PAGOSA SPRINGS LGT SNOW  32  32  99 CALM      30.24S
TELLURIDE      CLOUDY    32  31  96 W3        30.17R
WOLF CREEK PAS NOT AVBL
$$

COZ009-010-012-014-032>034-037-058>063-301800-
...CENTRAL COLORADO...

CITY           SKY/WX    TMP DP  RH WIND       PRES   REMARKS
ASPEN          CLOUDY    31  23  72 CALM      30.16F
BUENA VISTA    CLOUDY    32  23  70 CALM      30.25F
COPPER MTN     CLOUDY    30  18  59 SE9       30.24F WCI  22
BERTHOUD PASS  HAZE      19  14  79 MISG      30.26F VSB 1/4
COTTONWOOD PAS LGT SNOW  30  27  86 CALM      30.25F
GUNNISON       CLOUDY    30  27  86 N5        30.23F WCI  25
KREMMLING      CLOUDY    28  21  74 CALM      30.24S
LEADVILLE      CLOUDY    22  18  85 CALM      30.22F
SALIDA         CLOUDY    33  28  81 CALM      30.32F
SUNLIGHT       CLOUDY    30  27  86 E3          N/A
WILKERSON PASS CLOUDY    25  23  93 NE7       30.28F WCI  17
$$

COZ069>075-301800-
...SAN LUIS VALLEY/SANGRE DE CRISTO MOUNTAINS...

CITY           SKY/WX    TMP DP  RH WIND       PRES   REMARKS
ALAMOSA        CLOUDY    30  27  88 E5        30.25S WCI  25
LA VETA PASS   LGT SNOW  27  23  86 S8        30.24F WCI  18
SAGUACHE       LGT SNOW  30  28  93 CALM      30.28S
$$

COZ035-036-038>040-301800-
...NORTHERN COLORADO FRONT RANGE...

CITY           SKY/WX    TMP DP  RH WIND       PRES   REMARKS
DENVER INTL AP CLOUDY    38  25  59 VRB5      30.19R
DMNS CITY PARK   N/A     40  25  54 SW2       30.19S
AURORA         CLOUDY    40  25  56 S3        30.19F
FRONT RANGE AP CLOUDY    39  28  65 CALM      30.19
ERIE MUNI ARPT CLOUDY    39  27  61 S3        30.19S
BOULDER MUN AP CLOUDY    39  27  60 CALM      30.18S
CENTENNIAL     CLOUDY    38  27  64 VRB3      30.19S
BROOMFIELD     PTSUNNY   37  25  60 S5        30.19
FORT COLLINS   CLOUDY    36  27  69 SW3       30.20S
LONGMONT       CLOUDY    42  28  58 CALM      30.20S
$$

COZ041-046-047-076>085-087-088-301800-
...PIKES PEAK/PALMER DIVIDE AND SOUTHERN FOOTHILLS...

CITY           SKY/WX    TMP DP  RH WIND       PRES   REMARKS
COLO. SPRINGS  CLOUDY    33  25  72 E6        30.22F WCI  28
A. F. ACADEMY  CLOUDY    32  23  70 CALM      30.20F
ELLICOTT       CLOUDY   N/A N/A N/A S7        30.21F
FALCON         CLOUDY    32  24  71 S6        30.22S WCI  26
FORT CARSON    CLOUDY    33  26  75 N6        30.21F WCI  27
LIMON          MOSUNNY   40  27  59 S15G22    30.23S
MONUMENT HILL  PTSUNNY   36  25  64 SW6       30.18S
TRINIDAD       CLOUDY    40  28  62 W16G22    30.23F
$$

COZ042>045-048>051-090-091-301800-
...NORTHEAST COLORADO...

CITY           SKY/WX    TMP DP  RH WIND       PRES   REMARKS
GREELEY ARPT   CLOUDY    34  23  64 SW3       30.18F
AKRON          CLOUDY    43  28  55 SW17G23   30.19S
BURLINGTON     CLOUDY    44  28  53 S24G32    30.26R
WRAY           CLOUDY    44  30  57 S8        30.24F
STERLING       CLOUDY    39  30  70 SW3       30.18F
HOLYOKE        NOT AVBL
FORT MORGAN    CLOUDY    35  26  70 SW3       30.19F
$$

COZ086-089-092>099-301800-
...SOUTHEAST COLORADO...

CITY           SKY/WX    TMP DP  RH WIND       PRES   REMARKS
PUEBLO         CLOUDY    36  27  69 CALM      30.23S
LA JUNTA       LGT RAIN  40  34  79 SE13      30.25F
LAMAR          LGT RAIN  41  37  86 W7        30.29F
SPRINGFIELD      N/A     42  27  55 S16       30.31S
$$


USA.gov is the U.S. government's official web portal to all federal, state and local government web resources and services.